This is the latest recevied weather packets stored in our database for station/object F4GQK-13. If no packets are shown the sender has not sent any weather packets the latest 1 day(s).
| Time | Temp. | Humidity | Pressure | Rain* | Wind** | Luminosity | Snow |
|---|---|---|---|---|---|---|---|
| 1777999505 | 12.78° C | 97% | 1007.6 hPa | 1.78 mm | 2.24 m/s, 345° | 48 W/m² | - |
| 1777999205 | 12.78° C | 97% | 1007.6 hPa | 1.52 mm | 0.89 m/s, 323° | 45 W/m² | - |
| 1777998905 | 12.78° C | 97% | 1007.7 hPa | 1.02 mm | 1.34 m/s, 298° | 47 W/m² | - |
| 1777998605 | 13.33° C | 97% | 1007.7 hPa | 0.51 mm | 1.79 m/s, 346° | 48 W/m² | - |
| 1777998305 | 13.33° C | 97% | 1007.7 hPa | 0.76 mm | 0.89 m/s, 4° | 41 W/m² | - |
| 1777998005 | 13.33° C | 97% | 1007.7 hPa | 0.76 mm | 0.89 m/s, 342° | 34 W/m² | - |
| 1777997705 | 13.33° C | 97% | 1007.6 hPa | 0.76 mm | 2.68 m/s, 359° | 50 W/m² | - |
| 1777997405 | 12.78° C | 97% | 1007.7 hPa | 0.76 mm | 1.79 m/s, 358° | 60 W/m² | - |
| 1777997104 | 12.78° C | 97% | 1007.7 hPa | 0.76 mm | 0.45 m/s, 336° | 46 W/m² | - |
| 1777996805 | 13.33° C | 97% | 1007.8 hPa | 0.76 mm | 0.89 m/s, 324° | 45 W/m² | - |
| 1777996505 | 13.33° C | 97% | 1007.8 hPa | 0.76 mm | 2.24 m/s, 310° | 72 W/m² | - |
| 1777996204 | 13.33° C | 97% | 1007.7 hPa | 0.76 mm | 0.89 m/s, 337° | 37 W/m² | - |
| 1777995904 | 13.33° C | 97% | 1007.8 hPa | 0.76 mm | 2.68 m/s, 352° | 66 W/m² | - |
| 1777995602 | 13.33° C | 97% | 1007.7 hPa | 0.51 mm | 0.89 m/s, 5° | 82 W/m² | - |
| 1777995304 | 13.33° C | 97% | 1007.6 hPa | 0.51 mm | 2.68 m/s, 355° | 78 W/m² | - |
| 1777995005 | 13.33° C | 97% | 1007.7 hPa | 0.51 mm | 2.68 m/s, 353° | 65 W/m² | - |
| 1777994705 | 13.33° C | 97% | 1007.6 hPa | 0.25 mm | 1.34 m/s, 356° | 106 W/m² | - |
| 1777994406 | 13.89° C | 96% | 1007.7 hPa | 0.25 mm | 1.79 m/s, 353° | 63 W/m² | - |
| 1777994104 | 13.89° C | 97% | 1007.5 hPa | 0.25 mm | 1.34 m/s, 5° | 46 W/m² | - |
| 1777993804 | 13.89° C | 96% | 1007.6 hPa | 0.25 mm | 2.24 m/s, 347° | 82 W/m² | - |
| 1777993505 | 14.44° C | 96% | 1007.6 hPa | 0.25 mm | 1.79 m/s, 37° | 112 W/m² | - |
| 1777993204 | 14.44° C | 96% | 1007.7 hPa | 0.25 mm | 2.24 m/s, 42° | 115 W/m² | - |
| 1777992905 | 14.44° C | 96% | 1007.7 hPa | 0.25 mm | 1.79 m/s, 7° | 127 W/m² | - |
| 1777992605 | 14.44° C | 96% | 1007.7 hPa | 0.25 mm | 1.79 m/s, 9° | 159 W/m² | - |
| 1777992305 | 14.44° C | 96% | 1007.8 hPa | 0.25 mm | 1.79 m/s, 353° | 79 W/m² | - |
* Rain latest hour (hover to see other rain measurements)
** Current wind speed in m/s (hover to see current wind gust speed)